User: anonymous   Login
Location: Boca do Mato
(22.9085°S, 43.2930°W)
Time: 19:20:56
(UTC+00:00)
Language:

Okean-O - Orbit

View from above orbital plane
View from above orbital plane
View from above satellite
View from above satellite

Ground track
Ground track

The orbit data is extracted from the following two-line orbital elements,

1 25860U 99039A   20263.49520308 +.00000015 +00000-0 +98205-5 0  9990
2 25860 098.2110 284.1141 0000832 077.8829 282.2473 14.76678014139396
Epoch (UTC): 19 September 2020 11:53:05
Eccentricity: 0.0000832
inclination: 98.2110°
perigee height: 639 km
apogee height: 640 km
right ascension of ascending node: 284.1141°
argument of perigee: 77.8829°
revolutions per day: 14.76678014
mean anomaly at epoch: 282.2473°
orbit number at epoch: 13939

The dashed part of the orbit path shows where the satellite is in the earth's shadow,  

DLR